Time,TemperatureF,DewpointF,PressureIn,WindDirection,WindDirectionDegrees,WindSpeedMPH,WindSpeedGustMPH,Humidity,HourlyPrecipIn,Conditions,Clouds,dailyrainin,SoftwareType,DateUTC
2017-07-27 00:03:00,74.5,72.6,30.06,WSW,247,0.0,0.0,94,0.00,,,0.00,WUHU21623XXSP,2017-07-27 05:03:00,
2017-07-27 00:08:00,74.3,72.4,30.06,WSW,247,0.0,0.0,94,0.00,,,0.00,WUHU21623XXSP,2017-07-27 05:08:00,
2017-07-27 00:13:00,74.3,72.4,30.06,WSW,247,0.0,0.0,94,0.00,,,0.00,WUHU21623XXSP,2017-07-27 05:13:00,
2017-07-27 00:18:00,74.3,72.4,30.06,WSW,247,0.0,0.0,94,0.00,,,0.00,WUHU21623XXSP,2017-07-27 05:18:00,
2017-07-27 00:23:00,74.1,72.2,30.06,WSW,247,0.0,0.0,94,0.00,,,0.00,WUHU21623XXSP,2017-07-27 05:23:00,
2017-07-27 00:28:00,74.1,72.2,30.06,WSW,247,0.0,0.0,94,0.00,,,0.00,WUHU21623XXSP,2017-07-27 05:28:00,
2017-07-27 00:33:00,74.1,72.2,30.06,WSW,247,0.0,0.0,94,0.00,,,0.00,WUHU21623XXSP,2017-07-27 05:33:00,
2017-07-27 00:38:00,74.1,72.2,30.06,WSW,247,0.0,0.0,94,0.00,,,0.00,WUHU21623XXSP,2017-07-27 05:38:00,
2017-07-27 00:43:00,74.1,72.2,30.06,WSW,247,0.0,0.0,94,0.00,,,0.00,WUHU21623XXSP,2017-07-27 05:43:00,
2017-07-27 00:48:00,74.1,72.2,30.05,WSW,247,0.0,0.0,94,0.00,,,0.00,WUHU21623XXSP,2017-07-27 05:48:00,
2017-07-27 00:53:00,73.9,72.0,30.05,WSW,247,0.0,0.0,94,0.00,,,0.00,WUHU21623XXSP,2017-07-27 05:53:00,
2017-07-27 00:58:00,73.9,72.0,30.05,WSW,247,0.0,0.0,94,0.00,,,0.00,WUHU21623XXSP,2017-07-27 05:58:00,
2017-07-27 01:03:00,73.9,72.0,30.04,WSW,247,0.0,0.0,94,0.00,,,0.00,WUHU21623XXSP,2017-07-27 06:03:00,
2017-07-27 01:08:00,73.9,72.0,30.04,WSW,247,0.0,0.0,94,0.00,,,0.00,WUHU21623XXSP,2017-07-27 06:08:00,
2017-07-27 01:13:00,73.9,72.0,30.04,WSW,247,0.0,0.0,94,0.00,,,0.00,WUHU21623XXSP,2017-07-27 06:13:00,
2017-07-27 01:18:00,73.9,72.0,30.04,WSW,247,0.0,0.0,94,0.00,,,0.00,WUHU21623XXSP,2017-07-27 06:18:00,
2017-07-27 01:23:00,73.8,71.9,30.04,WSW,247,0.0,0.0,94,0.00,,,0.00,WUHU21623XXSP,2017-07-27 06:23:00,
2017-07-27 01:28:00,73.8,71.9,30.04,WSW,247,0.0,0.0,94,0.00,,,0.00,WUHU21623XXSP,2017-07-27 06:28:00,
2017-07-27 01:33:00,73.8,71.9,30.04,WSW,247,0.0,0.0,94,0.00,,,0.00,WUHU21623XXSP,2017-07-27 06:33:00,
2017-07-27 01:38:00,73.8,71.9,30.04,WSW,247,0.0,0.0,94,0.00,,,0.00,WUHU21623XXSP,2017-07-27 06:38:00,
2017-07-27 01:43:00,73.8,71.9,30.04,WSW,247,0.0,0.0,94,0.00,,,0.00,WUHU21623XXSP,2017-07-27 06:43:00,
2017-07-27 01:48:00,73.6,71.7,30.04,WSW,247,0.0,0.0,94,0.00,,,0.00,WUHU21623XXSP,2017-07-27 06:48:00,
2017-07-27 01:53:00,73.6,71.7,30.04,WSW,247,0.0,0.0,94,0.00,,,0.00,WUHU21623XXSP,2017-07-27 06:53:00,
2017-07-27 01:58:00,73.6,71.7,30.04,WSW,247,0.0,0.0,94,0.00,,,0.00,WUHU21623XXSP,2017-07-27 06:58:00,
2017-07-27 02:03:00,73.6,71.7,30.03,WSW,247,0.0,0.0,94,0.00,,,0.00,WUHU21623XXSP,2017-07-27 07:03:00,
2017-07-27 02:08:00,73.6,71.7,30.04,WSW,247,0.0,0.0,94,0.00,,,0.00,WUHU21623XXSP,2017-07-27 07:08:00,
2017-07-27 02:13:00,73.6,71.7,30.03,WSW,247,0.0,0.0,94,0.00,,,0.00,WUHU21623XXSP,2017-07-27 07:13:00,
2017-07-27 02:18:00,73.4,71.5,30.03,WSW,247,0.0,0.0,94,0.00,,,0.00,WUHU21623XXSP,2017-07-27 07:18:00,
2017-07-27 02:23:00,73.4,71.5,30.03,WSW,247,0.0,0.0,94,0.00,,,0.00,WUHU21623XXSP,2017-07-27 07:23:00,
2017-07-27 02:28:00,73.4,71.5,30.03,WSW,247,0.0,0.0,94,0.00,,,0.00,WUHU21623XXSP,2017-07-27 07:28:00,
2017-07-27 02:33:00,73.2,71.0,30.03,WSW,247,0.0,0.0,93,0.00,,,0.00,WUHU21623XXSP,2017-07-27 07:33:00,
2017-07-27 02:38:00,73.2,71.3,30.03,WSW,247,0.0,0.0,94,0.00,,,0.00,WUHU21623XXSP,2017-07-27 07:38:00,
2017-07-27 02:43:00,73.2,71.3,30.03,WSW,247,0.0,0.0,94,0.00,,,0.00,WUHU21623XXSP,2017-07-27 07:43:00,
2017-07-27 02:48:00,73.2,71.3,30.03,WSW,247,0.0,0.0,94,0.00,,,0.00,WUHU21623XXSP,2017-07-27 07:48:00,
2017-07-27 02:53:00,73.2,71.3,30.03,WSW,247,0.0,0.0,94,0.00,,,0.00,WUHU21623XXSP,2017-07-27 07:53:00,
2017-07-27 02:58:00,73.2,71.3,30.03,WSW,247,0.0,0.0,94,0.00,,,0.00,WUHU21623XXSP,2017-07-27 07:58:00,
2017-07-27 03:03:00,73.2,71.3,30.03,WSW,247,0.0,0.0,94,0.00,,,0.00,WUHU21623XXSP,2017-07-27 08:03:00,
2017-07-27 03:08:00,73.2,71.3,30.03,WSW,247,0.0,0.0,94,0.00,,,0.00,WUHU21623XXSP,2017-07-27 08:08:00,
2017-07-27 03:13:00,73.2,71.3,30.03,WSW,247,0.0,0.0,94,0.00,,,0.00,WUHU21623XXSP,2017-07-27 08:13:00,
2017-07-27 03:18:00,73.2,71.3,30.03,WSW,247,0.0,0.0,94,0.00,,,0.00,WUHU21623XXSP,2017-07-27 08:18:00,
2017-07-27 03:23:00,73.0,71.1,30.03,WSW,247,0.0,0.0,94,0.00,,,0.00,WUHU21623XXSP,2017-07-27 08:23:00,
2017-07-27 03:28:00,73.0,71.1,30.03,WSW,247,0.0,0.0,94,0.00,,,0.00,WUHU21623XXSP,2017-07-27 08:28:00,
2017-07-27 03:33:00,73.0,71.1,30.03,WSW,247,0.0,0.0,94,0.00,,,0.00,WUHU21623XXSP,2017-07-27 08:33:00,
2017-07-27 03:39:00,73.0,71.1,30.03,WSW,247,0.0,0.0,94,0.00,,,0.00,WUHU21623XXSP,2017-07-27 08:39:00,
2017-07-27 03:44:00,73.0,71.1,30.03,WSW,247,0.0,0.0,94,0.00,,,0.00,WUHU21623XXSP,2017-07-27 08:44:00,
2017-07-27 03:49:00,73.0,71.1,30.03,WSW,247,0.0,0.0,94,0.00,,,0.00,WUHU21623XXSP,2017-07-27 08:49:00,
2017-07-27 03:54:00,72.9,71.0,30.03,WSW,247,0.0,0.0,94,0.00,,,0.00,WUHU21623XXSP,2017-07-27 08:54:00,
2017-07-27 03:59:00,72.9,71.0,30.03,WSW,247,0.0,0.0,94,0.00,,,0.00,WUHU21623XXSP,2017-07-27 08:59:00,
2017-07-27 04:04:00,73.0,71.1,30.03,WSW,247,0.0,0.0,94,0.00,,,0.00,WUHU21623XXSP,2017-07-27 09:04:00,
2017-07-27 04:09:00,73.0,71.1,30.03,WSW,247,0.0,0.0,94,0.00,,,0.00,WUHU21623XXSP,2017-07-27 09:09:00,
2017-07-27 04:14:00,73.0,71.1,30.03,WSW,247,0.0,0.0,94,0.00,,,0.00,WUHU21623XXSP,2017-07-27 09:14:00,
2017-07-27 04:19:00,72.9,71.0,30.04,WSW,247,0.0,0.0,94,0.00,,,0.00,WUHU21623XXSP,2017-07-27 09:19:00,
2017-07-27 04:24:00,72.9,71.0,30.04,WSW,247,0.0,0.0,94,0.00,,,0.00,WUHU21623XXSP,2017-07-27 09:24:00,
2017-07-27 04:29:00,72.9,71.0,30.04,WSW,247,0.0,0.0,94,0.00,,,0.00,WUHU21623XXSP,2017-07-27 09:29:00,
2017-07-27 04:34:00,72.9,71.0,30.04,WSW,247,0.0,0.0,94,0.00,,,0.00,WUHU21623XXSP,2017-07-27 09:34:00,
2017-07-27 04:39:00,73.0,71.1,30.04,WSW,247,0.0,0.0,94,0.00,,,0.00,WUHU21623XXSP,2017-07-27 09:39:00,
2017-07-27 04:44:00,73.0,71.1,30.04,WSW,247,0.0,0.0,94,0.00,,,0.00,WUHU21623XXSP,2017-07-27 09:44:00,
2017-07-27 04:49:00,73.0,71.1,30.04,WSW,247,0.0,0.0,94,0.00,,,0.00,WUHU21623XXSP,2017-07-27 09:49:00,
2017-07-27 04:54:00,72.9,71.0,30.04,WSW,247,0.0,0.0,94,0.00,,,0.00,WUHU21623XXSP,2017-07-27 09:54:00,
2017-07-27 04:59:00,73.0,71.1,30.04,WSW,247,0.0,0.0,94,0.00,,,0.00,WUHU21623XXSP,2017-07-27 09:59:00,
2017-07-27 05:04:00,73.0,70.8,30.04,WSW,247,0.0,0.0,93,0.00,,,0.00,WUHU21623XXSP,2017-07-27 10:04:00,
2017-07-27 05:09:00,73.0,71.1,30.04,WSW,247,0.0,0.0,94,0.00,,,0.00,WUHU21623XXSP,2017-07-27 10:09:00,
2017-07-27 05:14:00,73.0,70.8,30.04,WSW,247,0.0,0.0,93,0.00,,,0.00,WUHU21623XXSP,2017-07-27 10:14:00,
2017-07-27 05:19:00,73.0,71.1,30.04,WSW,247,0.0,0.0,94,0.00,,,0.00,WUHU21623XXSP,2017-07-27 10:19:00,
2017-07-27 05:24:00,73.0,71.1,30.05,WSW,247,0.0,0.0,94,0.00,,,0.00,WUHU21623XXSP,2017-07-27 10:24:00,
2017-07-27 05:29:00,73.0,70.8,30.05,WSW,247,0.0,0.0,93,0.00,,,0.00,WUHU21623XXSP,2017-07-27 10:29:00,
2017-07-27 05:34:00,73.0,70.8,30.05,WSW,247,0.0,0.0,93,0.00,,,0.00,WUHU21623XXSP,2017-07-27 10:34:00,
2017-07-27 05:39:00,73.0,70.8,30.05,WSW,247,0.0,0.0,93,0.00,,,0.00,WUHU21623XXSP,2017-07-27 10:39:00,
2017-07-27 05:44:00,73.0,70.8,30.05,WSW,247,0.0,0.0,93,0.00,,,0.00,WUHU21623XXSP,2017-07-27 10:44:00,
2017-07-27 05:49:00,73.0,71.1,30.05,WSW,247,0.0,0.0,94,0.00,,,0.00,WUHU21623XXSP,2017-07-27 10:49:00,
2017-07-27 05:54:00,73.0,70.8,30.05,WSW,247,0.0,0.0,93,0.00,,,0.00,WUHU21623XXSP,2017-07-27 10:54:00,
2017-07-27 05:59:00,72.9,70.7,30.05,WSW,247,0.0,0.0,93,0.00,,,0.00,WUHU21623XXSP,2017-07-27 10:59:00,
2017-07-27 06:04:00,72.9,71.0,30.05,WSW,247,0.0,0.0,94,0.00,,,0.00,WUHU21623XXSP,2017-07-27 11:04:00,
2017-07-27 06:09:00,72.9,71.0,30.05,WSW,247,0.0,0.0,94,0.00,,,0.00,WUHU21623XXSP,2017-07-27 11:09:00,
2017-07-27 06:14:00,72.9,70.7,30.06,WSW,247,0.0,0.0,93,0.00,,,0.00,WUHU21623XXSP,2017-07-27 11:14:00,
2017-07-27 06:19:00,72.9,70.7,30.06,WSW,247,0.0,0.0,93,0.00,,,0.00,WUHU21623XXSP,2017-07-27 11:19:00,
2017-07-27 06:24:00,72.9,70.7,30.06,WSW,247,0.0,0.0,93,0.00,,,0.00,WUHU21623XXSP,2017-07-27 11:24:00,
2017-07-27 06:29:00,73.0,70.8,30.06,WSW,247,0.0,0.0,93,0.00,,,0.00,WUHU21623XXSP,2017-07-27 11:29:00,
2017-07-27 06:34:00,73.0,70.8,30.06,WSW,247,0.0,0.0,93,0.00,,,0.00,WUHU21623XXSP,2017-07-27 11:34:00,
2017-07-27 06:39:00,73.0,70.8,30.06,WSW,247,0.0,0.0,93,0.00,,,0.00,WUHU21623XXSP,2017-07-27 11:39:00,
2017-07-27 06:44:00,73.0,70.8,30.06,WSW,247,0.0,0.0,93,0.00,,,0.00,WUHU21623XXSP,2017-07-27 11:44:00,
2017-07-27 06:49:00,73.2,71.0,30.06,WSW,247,0.0,0.0,93,0.00,,,0.00,WUHU21623XXSP,2017-07-27 11:49:00,
2017-07-27 06:54:00,73.2,71.0,30.06,WSW,247,0.0,0.0,93,0.00,,,0.00,WUHU21623XXSP,2017-07-27 11:54:00,
2017-07-27 06:59:00,73.2,71.0,30.06,WSW,247,0.0,0.0,93,0.00,,,0.00,WUHU21623XXSP,2017-07-27 11:59:00,
2017-07-27 07:04:00,73.6,71.7,30.06,WSW,247,0.0,0.0,94,0.00,,,0.00,WUHU21623XXSP,2017-07-27 12:04:00,
2017-07-27 07:09:00,73.6,71.7,30.06,WSW,247,0.0,0.0,94,0.00,,,0.00,WUHU21623XXSP,2017-07-27 12:09:00,
2017-07-27 07:14:00,73.8,71.9,30.06,WSW,247,0.0,0.0,94,0.00,,,0.00,WUHU21623XXSP,2017-07-27 12:14:00,
2017-07-27 07:19:00,73.9,72.0,30.06,WSW,247,0.0,0.0,94,0.00,,,0.00,WUHU21623XXSP,2017-07-27 12:19:00,
2017-07-27 07:24:00,74.1,72.2,30.06,WSW,247,0.0,0.0,94,0.00,,,0.00,WUHU21623XXSP,2017-07-27 12:24:00,
2017-07-27 07:29:00,74.5,72.6,30.06,WSW,247,0.0,0.0,94,0.00,,,0.00,WUHU21623XXSP,2017-07-27 12:29:00,
2017-07-27 07:34:00,74.5,72.6,30.06,WSW,247,0.0,0.0,94,0.00,,,0.00,WUHU21623XXSP,2017-07-27 12:34:00,
2017-07-27 07:39:00,74.8,72.9,30.06,WSW,247,0.0,0.0,94,0.00,,,0.00,WUHU21623XXSP,2017-07-27 12:39:00,
2017-07-27 07:44:00,75.0,72.8,30.06,WSW,247,0.0,0.0,93,0.00,,,0.00,WUHU21623XXSP,2017-07-27 12:44:00,
2017-07-27 07:49:00,75.4,73.2,30.06,WSW,247,0.0,0.0,93,0.00,,,0.00,WUHU21623XXSP,2017-07-27 12:49:00,
2017-07-27 07:54:00,75.4,73.2,30.07,WSW,247,0.0,0.0,93,0.00,,,0.00,WUHU21623XXSP,2017-07-27 12:54:00,
2017-07-27 07:59:00,75.7,73.5,30.07,WSW,247,0.0,0.0,93,0.00,,,0.00,WUHU21623XXSP,2017-07-27 12:59:00,
2017-07-27 08:04:00,75.7,73.5,30.07,WSW,247,0.0,0.0,93,0.00,,,0.00,WUHU21623XXSP,2017-07-27 13:04:00,
2017-07-27 08:09:00,75.9,73.7,30.07,WSW,247,0.0,0.0,93,0.00,,,0.00,WUHU21623XXSP,2017-07-27 13:09:00,
2017-07-27 08:14:00,76.1,73.9,30.06,WSW,247,0.0,0.0,93,0.00,,,0.00,WUHU21623XXSP,2017-07-27 13:14:00,
2017-07-27 08:19:00,76.1,73.9,30.06,WSW,247,0.0,0.0,93,0.00,,,0.00,WUHU21623XXSP,2017-07-27 13:19:00,
2017-07-27 08:24:00,76.3,74.1,30.06,WSW,247,0.0,0.0,93,0.00,,,0.00,WUHU21623XXSP,2017-07-27 13:24:00,
2017-07-27 08:29:00,76.6,74.4,30.06,WSW,247,0.0,0.0,93,0.00,,,0.00,WUHU21623XXSP,2017-07-27 13:29:00,
2017-07-27 08:34:00,76.8,74.6,30.07,WSW,247,0.0,0.0,93,0.00,,,0.00,WUHU21623XXSP,2017-07-27 13:34:00,
2017-07-27 08:39:00,77.2,75.0,30.07,WSW,247,0.0,0.0,93,0.00,,,0.00,WUHU21623XXSP,2017-07-27 13:39:00,
2017-07-27 08:44:00,77.5,75.6,30.06,SW,225,0.0,0.0,94,0.00,,,0.00,WUHU21623XXSP,2017-07-27 13:44:00,
2017-07-27 08:49:00,77.7,75.8,30.06,SW,225,0.0,0.0,94,0.00,,,0.00,WUHU21623XXSP,2017-07-27 13:49:00,
2017-07-27 08:54:00,78.1,76.2,30.06,SW,225,0.0,0.0,94,0.00,,,0.00,WUHU21623XXSP,2017-07-27 13:54:00,
2017-07-27 08:59:00,78.4,76.5,30.07,West,270,0.0,0.0,94,0.00,,,0.00,WUHU21623XXSP,2017-07-27 13:59:00,
2017-07-27 09:04:00,78.6,76.4,30.06,West,270,0.0,0.0,93,0.00,,,0.00,WUHU21623XXSP,2017-07-27 14:04:00,
2017-07-27 09:09:00,78.6,76.4,30.06,West,270,0.0,0.0,93,0.00,,,0.00,WUHU21623XXSP,2017-07-27 14:09:00,
2017-07-27 09:14:00,79.3,77.1,30.06,West,270,0.0,0.0,93,0.00,,,0.00,WUHU21623XXSP,2017-07-27 14:14:00,
2017-07-27 09:19:00,79.5,77.3,30.06,West,270,0.0,0.0,93,0.00,,,0.00,WUHU21623XXSP,2017-07-27 14:19:00,
2017-07-27 09:24:00,79.7,77.2,30.06,West,270,0.0,0.0,92,0.00,,,0.00,WUHU21623XXSP,2017-07-27 14:24:00,
2017-07-27 09:29:00,80.2,77.6,30.06,West,270,0.0,0.0,92,0.00,,,0.00,WUHU21623XXSP,2017-07-27 14:29:00,
2017-07-27 09:34:00,80.4,77.5,30.06,West,270,0.0,0.0,91,0.00,,,0.00,WUHU21623XXSP,2017-07-27 14:34:00,
2017-07-27 09:39:00,80.6,77.7,30.06,WSW,247,0.0,0.0,91,0.00,,,0.00,WUHU21623XXSP,2017-07-27 14:39:00,
2017-07-27 09:44:00,81.0,77.8,30.06,WSW,247,0.0,0.0,90,0.00,,,0.00,WUHU21623XXSP,2017-07-27 14:44:00,
2017-07-27 09:50:00,81.3,78.1,30.06,WSW,247,0.0,0.0,90,0.00,,,0.00,WUHU21623XXSP,2017-07-27 14:50:00,
2017-07-27 09:55:00,81.5,78.3,30.06,WSW,247,0.0,0.0,90,0.00,,,0.00,WUHU21623XXSP,2017-07-27 14:55:00,
2017-07-27 10:00:00,82.0,78.4,30.06,WSW,247,0.0,0.0,89,0.00,,,0.00,WUHU21623XXSP,2017-07-27 15:00:00,
2017-07-27 10:05:00,82.6,78.7,30.06,WSW,247,0.0,0.0,88,0.00,,,0.00,WUHU21623XXSP,2017-07-27 15:05:00,
2017-07-27 10:10:00,83.1,78.9,30.06,WSW,247,0.0,0.0,87,0.00,,,0.00,WUHU21623XXSP,2017-07-27 15:10:00,
2017-07-27 10:15:00,84.0,79.4,30.06,WSW,247,0.0,0.0,86,0.00,,,0.00,WUHU21623XXSP,2017-07-27 15:15:00,
2017-07-27 10:20:00,84.7,79.8,30.06,WSW,247,0.0,0.0,85,0.00,,,0.00,WUHU21623XXSP,2017-07-27 15:20:00,
2017-07-27 10:25:00,85.3,80.0,30.06,WSW,247,0.0,0.0,84,0.00,,,0.00,WUHU21623XXSP,2017-07-27 15:25:00,
2017-07-27 10:30:00,85.8,80.1,30.06,WSW,247,0.0,0.0,83,0.00,,,0.00,WUHU21623XXSP,2017-07-27 15:30:00,
2017-07-27 10:35:00,86.5,80.5,30.06,WSW,247,0.0,0.0,82,0.00,,,0.00,WUHU21623XXSP,2017-07-27 15:35:00,
2017-07-27 10:40:00,87.1,80.7,30.06,WSW,247,0.0,0.0,81,0.00,,,0.00,WUHU21623XXSP,2017-07-27 15:40:00,
2017-07-27 10:45:00,87.4,80.2,30.06,SSW,202,0.0,0.0,79,0.00,,,0.00,WUHU21623XXSP,2017-07-27 15:45:00,
2017-07-27 10:50:00,87.4,79.5,30.06,West,270,0.0,0.0,77,0.00,,,0.00,WUHU21623XXSP,2017-07-27 15:50:00,
2017-07-27 10:55:00,87.4,79.5,30.06,West,270,0.0,0.0,77,0.00,,,0.00,WUHU21623XXSP,2017-07-27 15:55:00,
2017-07-27 11:00:00,87.6,80.1,30.06,SW,225,0.0,0.0,78,0.00,,,0.00,WUHU21623XXSP,2017-07-27 16:00:00,
2017-07-27 11:05:00,88.0,80.4,30.06,SW,225,0.0,0.0,78,0.00,,,0.00,WUHU21623XXSP,2017-07-27 16:05:00,
2017-07-27 11:10:00,88.5,80.9,30.06,SW,225,0.0,0.0,78,0.00,,,0.00,WUHU21623XXSP,2017-07-27 16:10:00,
2017-07-27 11:15:00,89.1,81.1,30.05,SW,225,0.0,0.0,77,0.00,,,0.00,WUHU21623XXSP,2017-07-27 16:15:00,
2017-07-27 11:20:00,89.4,80.6,30.05,SW,225,0.0,0.0,75,0.00,,,0.00,WUHU21623XXSP,2017-07-27 16:20:00,
2017-07-27 11:25:00,89.6,81.2,30.05,NNW,337,0.0,0.0,76,0.00,,,0.00,WUHU21623XXSP,2017-07-27 16:25:00,
2017-07-27 11:30:00,90.1,81.7,30.05,NNW,337,0.0,0.0,76,0.00,,,0.00,WUHU21623XXSP,2017-07-27 16:30:00,
2017-07-27 11:35:00,90.5,81.3,30.05,SSW,202,0.0,0.0,74,0.00,,,0.00,WUHU21623XXSP,2017-07-27 16:35:00,
2017-07-27 11:40:00,90.9,80.9,30.05,West,270,0.0,0.0,72,0.00,,,0.00,WUHU21623XXSP,2017-07-27 16:40:00,
2017-07-27 11:45:00,90.9,80.5,30.05,West,270,0.0,0.0,71,0.00,,,0.00,WUHU21623XXSP,2017-07-27 16:45:00,
2017-07-27 11:50:00,91.0,81.0,30.05,SSW,202,0.0,0.0,72,0.00,,,0.00,WUHU21623XXSP,2017-07-27 16:50:00,
2017-07-27 11:55:00,91.0,80.1,30.04,SW,225,0.0,0.0,70,0.00,,,0.00,WUHU21623XXSP,2017-07-27 16:55:00,
2017-07-27 12:00:00,91.0,80.1,30.04,SW,225,0.0,0.0,70,0.00,,,0.00,WUHU21623XXSP,2017-07-27 17:00:00,
2017-07-27 12:05:00,91.0,80.6,30.04,SW,225,0.0,0.0,71,0.00,,,0.00,WUHU21623XXSP,2017-07-27 17:05:00,
2017-07-27 12:10:00,90.3,79.0,30.05,WSW,247,0.0,0.0,69,0.00,,,0.00,WUHU21623XXSP,2017-07-27 17:10:00,
2017-07-27 12:15:00,89.2,78.4,30.04,WSW,247,0.0,0.0,70,0.00,,,0.00,WUHU21623XXSP,2017-07-27 17:15:00,
2017-07-27 12:20:00,88.3,78.4,30.04,SW,225,0.0,0.0,72,0.00,,,0.00,WUHU21623XXSP,2017-07-27 17:20:00,
2017-07-27 12:25:00,87.1,78.4,30.04,SW,225,0.0,0.0,75,0.00,,,0.00,WUHU21623XXSP,2017-07-27 17:25:00,
2017-07-27 12:30:00,86.5,78.6,30.04,SW,225,0.0,0.0,77,0.00,,,0.00,WUHU21623XXSP,2017-07-27 17:30:00,
2017-07-27 12:35:00,86.2,79.1,30.03,SW,225,0.0,0.0,79,0.00,,,0.00,WUHU21623XXSP,2017-07-27 17:35:00,
2017-07-27 12:40:00,86.5,79.4,30.03,SW,225,0.0,0.0,79,0.00,,,0.00,WUHU21623XXSP,2017-07-27 17:40:00,
2017-07-27 12:45:00,87.1,80.3,30.02,WSW,247,0.0,0.0,80,0.00,,,0.00,WUHU21623XXSP,2017-07-27 17:45:00,
2017-07-27 12:50:00,88.3,81.1,30.02,WSW,247,0.0,0.0,79,0.00,,,0.00,WUHU21623XXSP,2017-07-27 17:50:00,
2017-07-27 12:55:00,89.4,79.4,30.01,West,270,0.0,0.0,72,0.00,,,0.00,WUHU21623XXSP,2017-07-27 17:55:00,
2017-07-27 13:00:00,90.0,80.0,30.01,NW,315,0.0,0.0,72,0.00,,,0.00,WUHU21623XXSP,2017-07-27 18:00:00,
2017-07-27 13:05:00,90.3,81.1,30.01,West,270,0.0,0.0,74,0.00,,,0.00,WUHU21623XXSP,2017-07-27 18:05:00,
2017-07-27 13:10:00,91.2,80.8,30.01,SW,225,0.0,0.0,71,0.00,,,0.00,WUHU21623XXSP,2017-07-27 18:10:00,
2017-07-27 13:15:00,91.6,81.6,30.01,West,270,0.0,0.0,72,0.00,,,0.00,WUHU21623XXSP,2017-07-27 18:15:00,
2017-07-27 13:20:00,92.3,81.4,30.01,WSW,247,0.0,0.0,70,0.00,,,0.00,WUHU21623XXSP,2017-07-27 18:20:00,
2017-07-27 13:25:00,93.0,80.7,30.00,WSW,247,0.0,0.0,67,0.00,,,0.00,WUHU21623XXSP,2017-07-27 18:25:00,
2017-07-27 13:30:00,93.0,80.7,30.00,WSW,247,0.0,0.0,67,0.00,,,0.00,WUHU21623XXSP,2017-07-27 18:30:00,
2017-07-27 13:35:00,93.0,80.7,30.00,NW,315,0.0,0.0,67,0.00,,,0.00,WUHU21623XXSP,2017-07-27 18:35:00,
2017-07-27 13:40:00,93.4,79.7,29.99,WNW,292,0.0,0.0,64,0.00,,,0.00,WUHU21623XXSP,2017-07-27 18:40:00,
2017-07-27 13:45:00,93.0,79.8,29.99,WNW,292,0.0,0.0,65,0.00,,,0.00,WUHU21623XXSP,2017-07-27 18:45:00,
2017-07-27 13:50:00,93.0,79.8,29.99,SW,225,0.0,0.0,65,0.00,,,0.00,WUHU21623XXSP,2017-07-27 18:50:00,
2017-07-27 13:55:00,93.4,79.7,29.99,NW,315,0.0,0.0,64,0.00,,,0.00,WUHU21623XXSP,2017-07-27 18:55:00,
2017-07-27 14:00:00,93.6,79.4,29.99,SSW,202,0.0,0.0,63,0.00,,,0.00,WUHU21623XXSP,2017-07-27 19:00:00,
2017-07-27 14:05:00,93.7,79.0,29.99,North,0,0.0,0.0,62,0.00,,,0.00,WUHU21623XXSP,2017-07-27 19:05:00,
2017-07-27 14:10:00,93.6,79.4,29.99,West,270,0.0,0.0,63,0.00,,,0.00,WUHU21623XXSP,2017-07-27 19:10:00,
2017-07-27 14:15:00,93.4,78.3,29.99,SW,225,0.0,0.0,61,0.00,,,0.00,WUHU21623XXSP,2017-07-27 19:15:00,
2017-07-27 14:20:00,93.6,78.9,29.99,SW,225,0.0,0.0,62,0.00,,,0.00,WUHU21623XXSP,2017-07-27 19:20:00,
2017-07-27 14:25:00,93.7,78.5,29.99,South,180,0.0,0.0,61,0.00,,,0.00,WUHU21623XXSP,2017-07-27 19:25:00,
2017-07-27 14:30:00,93.7,79.0,29.99,West,270,0.0,0.0,62,0.00,,,0.00,WUHU21623XXSP,2017-07-27 19:30:00,
2017-07-27 14:35:00,93.9,79.7,29.99,NNW,337,0.0,0.0,63,0.00,,,0.00,WUHU21623XXSP,2017-07-27 19:35:00,
2017-07-27 14:40:00,94.3,79.6,29.98,SW,225,0.0,0.0,62,0.00,,,0.00,WUHU21623XXSP,2017-07-27 19:40:00,
2017-07-27 14:45:00,94.1,79.4,29.98,SSW,202,0.0,0.0,62,0.00,,,0.00,WUHU21623XXSP,2017-07-27 19:45:00,
2017-07-27 14:50:00,94.1,79.4,29.98,West,270,0.0,0.0,62,0.00,,,0.00,WUHU21623XXSP,2017-07-27 19:50:00,
2017-07-27 14:55:00,94.5,79.8,29.98,West,270,0.0,0.0,62,0.00,,,0.00,WUHU21623XXSP,2017-07-27 19:55:00,
2017-07-27 15:00:00,94.5,77.8,29.98,WSW,247,0.0,0.0,58,0.00,,,0.00,WUHU21623XXSP,2017-07-27 20:00:00,
2017-07-27 15:05:00,94.3,78.1,29.98,South,180,0.0,0.0,59,0.00,,,0.00,WUHU21623XXSP,2017-07-27 20:05:00,
2017-07-27 15:10:00,94.6,79.4,29.97,West,270,0.0,0.0,61,0.00,,,0.00,WUHU21623XXSP,2017-07-27 20:10:00,
2017-07-27 15:15:00,94.8,79.6,29.97,NW,315,0.0,0.0,61,0.00,,,0.00,WUHU21623XXSP,2017-07-27 20:15:00,
2017-07-27 15:20:00,94.6,78.4,29.97,South,180,0.0,0.0,59,0.00,,,0.00,WUHU21623XXSP,2017-07-27 20:20:00,
2017-07-27 15:25:00,94.6,78.9,29.97,SW,225,0.0,0.0,60,0.00,,,0.00,WUHU21623XXSP,2017-07-27 20:25:00,
2017-07-27 15:30:00,94.1,77.4,29.96,South,180,0.0,0.0,58,0.00,,,0.00,WUHU21623XXSP,2017-07-27 20:30:00,
2017-07-27 15:35:00,93.4,77.2,29.96,SW,225,0.0,0.0,59,0.00,,,0.00,WUHU21623XXSP,2017-07-27 20:35:00,
2017-07-27 15:40:00,93.0,76.9,29.96,SSW,202,0.0,0.0,59,0.00,,,0.00,WUHU21623XXSP,2017-07-27 20:40:00,
2017-07-27 15:45:00,92.7,77.1,29.96,SSW,202,0.0,0.0,60,0.00,,,0.00,WUHU21623XXSP,2017-07-27 20:45:00,
2017-07-27 15:50:00,92.8,76.7,29.96,SSW,202,0.0,0.0,59,0.00,,,0.00,WUHU21623XXSP,2017-07-27 20:50:00,
2017-07-27 15:55:00,93.0,76.9,29.96,WSW,247,0.0,0.0,59,0.00,,,0.00,WUHU21623XXSP,2017-07-27 20:55:00,
2017-07-27 16:00:00,93.0,76.9,29.96,SW,225,0.0,0.0,59,0.00,,,0.00,WUHU21623XXSP,2017-07-27 21:00:00,
2017-07-27 16:05:00,93.6,76.9,29.95,NW,315,0.0,0.0,58,0.00,,,0.00,WUHU21623XXSP,2017-07-27 21:05:00,
2017-07-27 16:10:00,93.4,76.7,29.95,SW,225,0.0,0.0,58,0.00,,,0.00,WUHU21623XXSP,2017-07-27 21:10:00,
2017-07-27 16:15:00,93.4,76.7,29.95,WSW,247,0.0,0.0,58,0.00,,,0.00,WUHU21623XXSP,2017-07-27 21:15:00,
2017-07-27 16:20:00,93.6,76.9,29.94,NW,315,0.0,0.0,58,0.00,,,0.00,WUHU21623XXSP,2017-07-27 21:20:00,
2017-07-27 16:25:00,93.9,77.2,29.94,NW,315,0.0,0.0,58,0.00,,,0.00,WUHU21623XXSP,2017-07-27 21:25:00,
2017-07-27 16:31:00,94.3,77.6,29.94,WSW,247,0.0,0.0,58,0.00,,,0.00,WUHU21623XXSP,2017-07-27 21:31:00,
2017-07-27 16:36:00,94.8,78.0,29.94,WSW,247,0.0,0.0,58,0.00,,,0.00,WUHU21623XXSP,2017-07-27 21:36:00,
2017-07-27 16:41:00,95.0,78.2,29.95,NW,315,0.0,0.0,58,0.00,,,0.00,WUHU21623XXSP,2017-07-27 21:41:00,
2017-07-27 16:46:00,95.2,78.4,29.94,NW,315,0.0,0.0,58,0.00,,,0.00,WUHU21623XXSP,2017-07-27 21:46:00,
2017-07-27 16:51:00,95.2,77.9,29.94,NW,315,0.0,0.0,57,0.00,,,0.00,WUHU21623XXSP,2017-07-27 21:51:00,
2017-07-27 16:56:00,94.8,77.0,29.94,South,180,0.0,0.0,56,0.00,,,0.00,WUHU21623XXSP,2017-07-27 21:56:00,
2017-07-27 17:01:00,94.6,77.3,29.94,WSW,247,0.0,0.0,57,0.00,,,0.00,WUHU21623XXSP,2017-07-27 22:01:00,
2017-07-27 17:06:00,94.3,77.0,29.94,WSW,247,0.0,0.0,57,0.00,,,0.00,WUHU21623XXSP,2017-07-27 22:06:00,
2017-07-27 17:11:00,94.1,76.8,29.93,WSW,247,0.0,0.0,57,0.00,,,0.00,WUHU21623XXSP,2017-07-27 22:11:00,
2017-07-27 17:16:00,93.9,76.7,29.94,West,270,0.0,0.0,57,0.00,,,0.00,WUHU21623XXSP,2017-07-27 22:16:00,
2017-07-27 17:21:00,93.7,76.5,29.93,WNW,292,0.0,0.0,57,0.00,,,0.00,WUHU21623XXSP,2017-07-27 22:21:00,
2017-07-27 17:26:00,93.7,76.5,29.94,West,270,0.0,0.0,57,0.00,,,0.00,WUHU21623XXSP,2017-07-27 22:26:00,
2017-07-27 17:31:00,93.7,76.5,29.93,WSW,247,0.0,0.0,57,0.00,,,0.00,WUHU21623XXSP,2017-07-27 22:31:00,
2017-07-27 17:36:00,93.7,75.9,29.94,SSW,202,0.0,0.0,56,0.00,,,0.00,WUHU21623XXSP,2017-07-27 22:36:00,
2017-07-27 17:41:00,93.7,75.9,29.94,SSW,202,0.0,0.0,56,0.00,,,0.00,WUHU21623XXSP,2017-07-27 22:41:00,
2017-07-27 17:46:00,93.4,76.2,29.94,WSW,247,0.0,0.0,57,0.00,,,0.00,WUHU21623XXSP,2017-07-27 22:46:00,
2017-07-27 17:51:00,93.6,76.4,29.94,WSW,247,0.0,0.0,57,0.00,,,0.00,WUHU21623XXSP,2017-07-27 22:51:00,
2017-07-27 17:56:00,93.4,76.7,29.94,WSW,247,0.0,0.0,58,0.00,,,0.00,WUHU21623XXSP,2017-07-27 22:56:00,
2017-07-27 18:01:00,93.6,76.9,29.94,WSW,247,0.0,0.0,58,0.00,,,0.00,WUHU21623XXSP,2017-07-27 23:01:00,
2017-07-27 18:06:00,93.4,76.2,29.94,WSW,247,0.0,0.0,57,0.00,,,0.00,WUHU21623XXSP,2017-07-27 23:06:00,
2017-07-27 18:11:00,93.4,75.6,29.94,WSW,247,0.0,0.0,56,0.00,,,0.00,WUHU21623XXSP,2017-07-27 23:11:00,
2017-07-27 18:16:00,93.0,75.3,29.94,SW,225,0.0,0.0,56,0.00,,,0.00,WUHU21623XXSP,2017-07-27 23:16:00,
2017-07-27 18:21:00,92.8,75.6,29.94,SW,225,0.0,0.0,57,0.00,,,0.00,WUHU21623XXSP,2017-07-27 23:21:00,
2017-07-27 18:26:00,92.3,75.7,29.94,SW,225,0.0,0.0,58,0.00,,,0.00,WUHU21623XXSP,2017-07-27 23:26:00,